TimeCDT,TemperatureF,Dew PointF,Humidity,Sea Level PressureIn,VisibilityMPH,Wind Direction,Wind SpeedMPH,Gust SpeedMPH,PrecipitationIn,Events,Conditions,WindDirDegrees,DateUTC
12:15 AM,53.1,44.8,73,30.02,10.0,SSE,5.8,-,N/A,,Clear,160,2013-10-09 05:15:00
12:35 AM,52.5,44.8,75,30.02,10.0,SSE,5.8,-,N/A,,Clear,160,2013-10-09 05:35:00
12:55 AM,52.7,45.3,76,30.02,10.0,SSE,6.9,-,N/A,,Clear,160,2013-10-09 05:55:00
1:15 AM,52.9,45.5,76,30.03,10.0,South,4.6,-,N/A,,Clear,170,2013-10-09 06:15:00
1:35 AM,52.7,45.5,76,30.03,10.0,SSE,6.9,-,N/A,,Clear,160,2013-10-09 06:35:00
1:55 AM,52.2,45.5,78,30.04,10.0,SSE,4.6,-,N/A,,Clear,160,2013-10-09 06:55:00
2:15 AM,52.7,45.5,76,30.04,10.0,SSE,5.8,-,N/A,,Clear,160,2013-10-09 07:15:00
2:35 AM,51.1,45.0,80,30.05,10.0,SSE,3.5,-,N/A,,Clear,150,2013-10-09 07:35:00
2:55 AM,50.7,44.8,80,30.05,10.0,SSE,4.6,-,N/A,,Clear,150,2013-10-09 07:55:00
3:15 AM,49.6,45.0,84,30.04,10.0,SE,5.8,-,N/A,,Clear,140,2013-10-09 08:15:00
3:35 AM,49.1,44.6,84,30.04,10.0,SE,5.8,-,N/A,,Clear,140,2013-10-09 08:35:00
3:55 AM,48.4,44.6,87,30.05,10.0,SSE,6.9,-,N/A,,Clear,150,2013-10-09 08:55:00
4:15 AM,48.6,44.8,87,30.05,10.0,SSE,5.8,-,N/A,,Clear,150,2013-10-09 09:15:00
4:35 AM,47.5,43.9,87,30.05,10.0,SE,4.6,-,N/A,,Clear,140,2013-10-09 09:35:00
4:55 AM,47.5,44.2,89,30.05,10.0,SE,4.6,-,N/A,,Clear,140,2013-10-09 09:55:00
5:15 AM,48.7,45.1,87,30.05,10.0,SE,5.8,-,N/A,,Clear,140,2013-10-09 10:15:00
5:35 AM,48.6,45.0,87,30.05,10.0,SE,6.9,-,N/A,,Clear,140,2013-10-09 10:35:00
5:55 AM,47.3,44.1,88,30.05,10.0,SE,6.9,-,N/A,,Clear,140,2013-10-09 10:55:00
6:15 AM,47.7,44.8,90,30.05,10.0,SE,6.9,-,N/A,,Clear,140,2013-10-09 11:15:00
6:35 AM,49.1,45.7,88,30.05,10.0,SSE,6.9,-,N/A,,Clear,150,2013-10-09 11:35:00
6:55 AM,49.1,45.9,89,30.06,10.0,SSE,6.9,-,N/A,,Clear,160,2013-10-09 11:55:00
7:15 AM,48.7,45.5,89,30.06,10.0,SSE,4.6,-,N/A,,Clear,160,2013-10-09 12:15:00
7:35 AM,48.0,45.0,89,30.06,10.0,SSE,5.8,-,N/A,,Clear,150,2013-10-09 12:35:00
7:55 AM,49.1,46.0,89,30.06,10.0,SE,6.9,-,N/A,,Clear,140,2013-10-09 12:55:00
8:15 AM,51.1,47.3,87,30.06,10.0,SSE,5.8,-,N/A,,Clear,150,2013-10-09 13:15:00
8:35 AM,53.1,48.2,84,30.07,10.0,SSE,5.8,-,N/A,,Clear,160,2013-10-09 13:35:00
8:55 AM,54.1,48.0,80,30.07,10.0,SSE,9.2,-,N/A,,Clear,160,2013-10-09 13:55:00
9:15 AM,55.6,48.4,77,30.08,10.0,SSE,6.9,-,N/A,,Clear,160,2013-10-09 14:15:00
9:35 AM,57.4,48.4,72,30.08,10.0,South,10.4,-,N/A,,Clear,170,2013-10-09 14:35:00
9:55 AM,59.7,48.4,66,30.08,10.0,SSE,9.2,-,N/A,,Clear,160,2013-10-09 14:55:00
10:15 AM,61.7,48.2,61,30.08,10.0,SSE,10.4,16.1,N/A,,Clear,160,2013-10-09 15:15:00
10:35 AM,63.5,47.8,57,30.09,10.0,SSE,10.4,-,N/A,,Clear,160,2013-10-09 15:35:00
10:55 AM,65.3,46.6,51,30.09,10.0,SSE,10.4,-,N/A,,Clear,160,2013-10-09 15:55:00
11:15 AM,66.9,45.9,47,30.09,10.0,South,11.5,17.3,N/A,,Clear,170,2013-10-09 16:15:00
11:35 AM,69.3,45.1,42,30.09,10.0,South,10.4,18.4,N/A,,Clear,170,2013-10-09 16:35:00
11:55 AM,70.5,44.4,39,30.08,10.0,SSE,16.1,21.9,N/A,,Clear,160,2013-10-09 16:55:00
12:15 PM,71.8,43.7,36,30.08,10.0,SSE,12.7,20.7,N/A,,Clear,160,2013-10-09 17:15:00
12:35 PM,72.1,43.7,36,30.08,10.0,SSE,15.0,19.6,N/A,,Clear,160,2013-10-09 17:35:00
12:55 PM,72.9,43.5,35,30.07,10.0,SSE,16.1,20.7,N/A,,Clear,160,2013-10-09 17:55:00
1:15 PM,73.6,43.2,34,30.07,10.0,SSE,13.8,23.0,N/A,,Clear,160,2013-10-09 18:15:00
1:35 PM,74.3,43.2,33,30.06,10.0,SSE,13.8,20.7,N/A,,Clear,160,2013-10-09 18:35:00
1:55 PM,74.3,43.0,33,30.06,10.0,SSE,13.8,20.7,N/A,,Clear,150,2013-10-09 18:55:00
2:15 PM,74.8,42.3,31,30.05,10.0,SSE,12.7,18.4,N/A,,Clear,150,2013-10-09 19:15:00
2:35 PM,75.6,42.1,30,30.05,10.0,SSE,16.1,20.7,N/A,,Clear,150,2013-10-09 19:35:00
2:55 PM,75.9,39.7,27,30.04,10.0,South,13.8,19.6,N/A,,Clear,170,2013-10-09 19:55:00
3:15 PM,76.3,40.8,28,30.04,10.0,South,12.7,18.4,N/A,,Clear,170,2013-10-09 20:15:00
3:55 PM,76.1,41.4,29,30.03,10.0,SE,12.7,20.7,N/A,,Clear,140,2013-10-09 20:55:00
4:15 PM,76.5,41.2,28,30.02,10.0,SE,13.8,18.4,N/A,,Clear,140,2013-10-09 21:15:00
4:35 PM,75.4,41.9,30,30.02,10.0,SE,12.7,17.3,N/A,,Clear,140,2013-10-09 21:35:00
4:55 PM,75.2,40.6,29,30.02,10.0,SSE,11.5,-,N/A,,Clear,150,2013-10-09 21:55:00
5:15 PM,74.7,39.9,29,30.02,10.0,SSE,13.8,18.4,N/A,,Clear,160,2013-10-09 22:15:00
5:35 PM,73.8,39.6,29,30.01,10.0,SSE,12.7,19.6,N/A,,Clear,160,2013-10-09 22:35:00
5:55 PM,72.5,40.3,31,30.02,10.0,SSE,13.8,17.3,N/A,,Clear,150,2013-10-09 22:55:00
6:15 PM,70.9,40.1,33,30.02,10.0,SSE,6.9,-,N/A,,Clear,160,2013-10-09 23:15:00
6:55 PM,63.5,43.5,48,30.02,10.0,SE,6.9,-,N/A,,Clear,130,2013-10-09 23:55:00
7:15 PM,61.7,44.1,52,30.02,10.0,SE,8.1,-,N/A,,Clear,140,2013-10-10 00:15:00
7:35 PM,59.9,45.0,58,30.02,10.0,SE,8.1,-,N/A,,Clear,130,2013-10-10 00:35:00
7:55 PM,59.4,45.5,60,30.03,10.0,SE,6.9,-,N/A,,Clear,140,2013-10-10 00:55:00
8:15 PM,58.3,45.5,62,30.03,10.0,SE,6.9,-,N/A,,Clear,140,2013-10-10 01:15:00
8:35 PM,57.2,45.5,65,30.04,10.0,SE,8.1,-,N/A,,Clear,140,2013-10-10 01:35:00
8:55 PM,56.3,45.5,67,30.03,10.0,SE,9.2,-,N/A,,Clear,140,2013-10-10 01:55:00
9:15 PM,57.6,46.0,65,30.03,10.0,SSE,8.1,-,N/A,,Clear,150,2013-10-10 02:15:00
9:35 PM,57.6,45.7,65,30.04,10.0,SSE,8.1,-,N/A,,Clear,160,2013-10-10 02:35:00
9:55 PM,57.4,45.5,65,30.04,10.0,SSE,8.1,-,N/A,,Clear,150,2013-10-10 02:55:00
10:15 PM,56.3,45.5,67,30.04,10.0,SSE,6.9,-,N/A,,Clear,160,2013-10-10 03:15:00
10:35 PM,55.0,45.1,69,30.04,10.0,SSE,8.1,-,N/A,,Clear,150,2013-10-10 03:35:00
10:55 PM,55.0,45.0,69,30.04,10.0,SSE,8.1,-,N/A,,Clear,150,2013-10-10 03:55:00
11:15 PM,54.9,44.6,68,30.04,10.0,SSE,6.9,-,N/A,,Clear,160,2013-10-10 04:15:00
11:55 PM,53.8,44.6,71,30.05,10.0,SSE,6.9,-,N/A,,Clear,160,2013-10-10 04:55:00